Location: Key Biscayne
(25.6930°N, 80.1630°W)
Time: 22:20:14
(UTC-04:00)

Vanguard 1 - All Passes

Search period start: 22 June 2018 00:00
Search period end: 02 July 2018 00:00
Orbit: 650 x 3833 km, 34.3° (Epoch: 22 June)

Date Brightness Start Highest point End Pass type
(mag) Time Alt. Az. Time Alt. Az. Time Alt. Az.
22 Jun - 03:42:16 10° SSE 03:45:44 15° SE 03:50:08 10° E visible
22 Jun - 05:57:40 10° SW 06:05:09 76° SSE 06:19:37 10° ENE visible
22 Jun - 08:17:57 10° W 08:28:59 65° N 08:49:08 10° ENE daylight
22 Jun - 10:40:05 10° WNW 10:56:21 71° NNE 11:20:13 10° E daylight
22 Jun - 13:03:34 10° WNW 13:24:30 76° SSW 13:47:07 10° SE daylight
22 Jun - 15:30:59 10° WNW 15:50:26 35° SW 16:07:18 10° SSE daylight
23 Jun - 04:01:08 10° S 04:06:03 24° SE 04:13:21 10° E visible
23 Jun - 06:18:28 10° WSW 06:26:16 87° NNW 06:41:29 10° ENE daylight
23 Jun - 08:39:14 10° W 08:50:50 62° N 09:11:34 10° E daylight
23 Jun - 11:01:23 10° WNW 11:18:19 77° NNE 11:42:23 10° ESE daylight
23 Jun - 13:25:06 10° WNW 13:46:00 66° SW 14:08:00 10° SE daylight
23 Jun - 15:54:23 10° W 16:11:24 26° SW 16:26:23 10° S daylight
24 Jun - 04:20:56 10° SSW 04:26:29 38° SE 04:35:38 10° ENE visible
24 Jun - 06:39:27 10° WSW 06:47:34 74° NNW 07:03:24 10° ENE daylight
24 Jun - 09:00:31 10° WNW 09:12:45 63° N 09:34:06 10° E daylight
24 Jun - 11:22:40 10° WNW 11:40:11 85° NNE 12:04:18 10° ESE daylight
24 Jun - 13:46:48 10° WNW 14:07:23 55° SW 14:28:33 10° SSE daylight
24 Jun - 16:19:11 10° W 16:32:27 18° SW 16:44:24 10° SSW daylight
25 Jun - 04:41:12 10° SW 04:47:05 56° SE 04:57:33 10° ENE visible
25 Jun - 07:00:33 10° W 07:09:05 65° N 07:25:27 10° ENE daylight
25 Jun - 09:21:46 10° WNW 09:34:39 65° N 09:56:39 10° E daylight
25 Jun - 11:43:55 10° WNW 12:01:54 86° SSW 12:25:55 10° ESE daylight
25 Jun - 14:08:48 10° WNW 14:28:39 44° SW 14:48:43 10° SSE daylight
25 Jun - 16:47:56 10° WSW 16:53:39 11° SW 16:59:06 10° SW daylight
26 Jun - 02:46:57 10° SSE 02:48:47 11° SE 02:50:50 10° ESE visible
26 Jun - 05:01:46 10° SW 05:07:55 77° SSE 05:19:17 10° ENE visible
26 Jun - 07:21:45 10° W 07:30:42 60° N 07:47:40 10° ENE daylight
26 Jun - 09:42:58 10° WNW 09:56:29 70° NNE 10:19:07 10° E daylight
26 Jun - 12:05:13 10° WNW 12:23:32 75° SSW 12:47:13 10° SE daylight
26 Jun - 14:31:16 10° W 14:49:52 35° SW 15:08:25 10° SSE daylight
27 Jun - 03:05:18 10° S 03:09:11 21° SE 03:14:23 10° E visible
27 Jun - 05:22:35 10° WSW 05:28:57 83° NNW 05:40:58 10° ENE visible
27 Jun - 07:42:57 10° WNW 07:52:23 58° N 08:10:04 10° E daylight
27 Jun - 10:04:08 10° WNW 10:18:16 77° NNE 10:41:24 10° ESE daylight
27 Jun - 12:26:37 10° WNW 12:45:03 64° SW 13:08:10 10° SE daylight
27 Jun - 14:54:30 10° W 15:11:06 26° SW 15:27:30 10° S daylight
28 Jun - 03:25:03 10° SSW 03:29:39 34° SE 03:36:33 10° ENE visible
28 Jun - 05:43:34 10° W 05:50:12 68° NNW 06:02:44 10° ENE visible
28 Jun - 08:04:08 10° WNW 08:14:06 59° N 08:32:35 10° E daylight
28 Jun - 10:25:16 10° WNW 10:39:56 85° NNE 11:03:25 10° ESE daylight
28 Jun - 12:48:13 10° WNW 13:06:31 53° SW 13:28:46 10° SSE daylight
28 Jun - 15:19:05 10° W 15:32:26 19° SW 15:45:32 10° S daylight
29 Jun - 03:45:20 10° SW 03:50:17 54° SE 03:58:17 10° ENE visible
29 Jun - 06:04:40 10° W 06:11:36 59° N 06:24:37 10° ENE visible
29 Jun - 08:25:16 10° WNW 08:35:47 62° NNE 08:55:09 10° E daylight
29 Jun - 10:46:24 10° WNW 11:01:32 84° SSW 11:25:09 10° ESE daylight
29 Jun - 13:10:05 10° WNW 13:27:56 43° SW 13:48:57 10° SSE daylight
29 Jun - 15:47:16 10° WSW 15:53:58 12° SW 16:00:35 10° SSW daylight
30 Jun - 04:05:57 10° WSW 04:11:07 79° SSE 04:19:50 10° ENE visible
30 Jun - 06:25:49 10° W 06:33:05 54° N 06:46:40 10° ENE daylight
30 Jun - 08:46:21 10° WNW 08:57:25 68° NNE 09:17:38 10° E daylight
30 Jun - 11:07:35 10° WNW 11:23:05 73° SSW 11:46:31 10° SE daylight
30 Jun - 13:32:27 10° W 13:49:21 34° SW 14:08:39 10° SSE daylight
01 Jul - 02:09:18 10° S 02:12:31 19° SE 02:16:21 10° E visible
01 Jul - 04:26:48 10° WSW 04:32:08 77° NNW 04:41:20 10° ENE visible
01 Jul - 06:46:58 10° WNW 06:54:37 53° N 07:08:56 10° ENE daylight
01 Jul - 09:07:23 10° WNW 09:18:58 76° NNE 09:39:58 10° ESE daylight
01 Jul - 11:28:53 10° WNW 11:44:35 61° SSW 12:07:31 10° SE daylight
01 Jul - 13:55:34 10° W 14:10:50 25° SW 14:27:42 10° S daylight
